Location: Betzi
(47.2343°N, 9.5260°E)
Time: 17:09:05
(UTC+00:00)

Cosmos 1656 Rocket - Pass Details

Date: 27 May 2022
Orbit: 796 x 845 km, 71.1° (Epoch: 06 July)

Event Time Altitude Azimuth Distance (km) Brightness Sun altitude
Rises 01:39:19 0° 334° (NNW) 3,313 7.2 -14.6°
Reaches altitude 10° 01:41:45 10° 337° (NNW) 2,378 6.5 -14.3°
Maximum altitude 01:47:09 67° 60° (ENE) 864 4.0 -13.8°
Drops below altitude 10° 01:52:32 10° 144° (SE) 2,370 5.9 -13.3°
Sets 01:54:58 0° 147° (SSE) 3,301 6.6 -13.0°
